Tracking 19794 objects as of 21-Jul-2019
HD Live streaming from Space Station
objects crossing your sky now

DELTA 1 R/B

Track DELTA 1 R/B now!
10-day predictions


NORAD ID: 6921
Int'l Code: 1973-086B
Perigee: 1,515.2 km
Apogee: 1,537.8 km
Inclination: 102.2 °
Period: 116.4 minutes
Semi major axis: 7897 km
RCS: 3.8464 m2 (large)
Launch date: November 6, 1973
Source: United States (US)
Launch site: AIR FORCE WESTERN TEST RANGE (AFWTR)

Note: This is a ROCKET BODY
aabbcc
Your satellite tracking list
Your tracking list is empty




NASA's NSSDC Master Catalog

Two Line Element Set (TLE):
1  6921U 73086B   19201.98105529 -.00000040  00000-0  43847-4 0  9999
2  6921 102.2435 173.2935 0014301 178.7392 181.3707 12.36998406 78328
Source of the keplerian elements: AFSPC